Weather History for KHYA - November, 2010

Change the Weather History Date:

Monday, November 29, 2010

  Actual Average Record
Temperature  
Mean Temperature 34 °F -  
Max Temperature 45 °F 51 °F 66 °F (2011)
Min Temperature 24 °F 35 °F 20 °F (1940)
Degree Days  
Heating Degree Days 30    
Moisture  
Dew Point 25 °F    
Average Humidity 73    
Maximum Humidity 92    
Minimum Humidity 48    
Precipitation  
Precipitation 0.00 in - - ()
Sea Level Pressure  
Sea Level Pressure 30.52 in    
Wind  
Wind Speed 2 mph (West)    
Max Wind Speed 8 mph    
Max Gust Speed -    
Visibility 10 miles    
Events      
Averages and records for this station are not official NWS values.
T = Trace of Precipitation, MM = Missing Value Source: NWS Daily Summary

Daily Weather History Graph

Daily Weather History Graph

Search for Another Location

Airport or City:

Trip Planner

Search our weather history database for the weather conditions in past years. The results will help you decide how hot, cold, wet, or windy it might be!

Date:

Astronomy

Nov. 29, 2010 Rise Set
Actual Time 6:46 AM EST 4:12 PM EST
Civil Twilight 6:15 AM EST 4:43 PM EST
Nautical Twilight 5:41 AM EST 5:17 PM EST
Astronomical Twilight 5:07 AM EST 5:50 PM EST
Moon No Moon Rise 12:16 PM EST (11/29)
Length of Visible Light 10h 27m
Length of Day
9h 25m
Last Quarter, 40% of the Moon is Illuminated
Nov 29
Last Quarter
Dec 5
New
Dec 13
First Quarter
Dec 21
Full
Dec 27
Last Quarter

Hourly Weather History & Observations

Time (EST) Temp. Windchill Dew Point Humidity Pressure Visibility Wind Dir Wind Speed Gust Speed Precip Events Conditions
12:56 AM 25.0 °F - 21.0 °F 85% 30.42 in 10.0 mi Calm Calm - N/A   Clear
1:56 AM 24.1 °F 19.7 °F 21.0 °F 88% 30.45 in 10.0 mi West 3.5 mph - N/A   Clear
2:56 AM 25.0 °F - 21.0 °F 85% 30.46 in 10.0 mi Calm Calm - N/A   Clear
3:56 AM 33.1 °F 28.7 °F 25.0 °F 72% 30.47 in 10.0 mi WNW 4.6 mph - N/A   Clear
4:56 AM 28.0 °F 24.2 °F 23.0 °F 81% 30.49 in 10.0 mi WNW 3.5 mph - N/A   Clear
7:56 AM 30.9 °F - 28.0 °F 89% 30.55 in 10.0 mi Calm Calm - N/A   Clear
8:56 AM 41.0 °F 39.0 °F 30.9 °F 67% 30.55 in 10.0 mi NW 3.5 mph - N/A   Clear
9:56 AM 43.0 °F 38.2 °F 28.9 °F 58% 30.56 in 10.0 mi NNW 8.1 mph - N/A   Clear
11:56 AM 45.0 °F 41.8 °F 27.0 °F 49% 30.53 in 10.0 mi NNE 5.8 mph - N/A   Clear
12:56 PM 45.0 °F - 26.1 °F 48% 30.53 in 10.0 mi Calm Calm - N/A   Clear
1:56 PM 44.1 °F 40.8 °F 27.0 °F 51% 30.52 in 10.0 mi South 5.8 mph - N/A   Clear
2:56 PM 44.1 °F 42.5 °F 26.1 °F 49% 30.53 in 10.0 mi SSE 3.5 mph - N/A   Clear
3:56 PM 42.1 °F 39.2 °F 28.0 °F 58% 30.54 in 10.0 mi South 4.6 mph - N/A   Clear
4:56 PM 37.9 °F - 27.0 °F 65% 30.55 in 10.0 mi Calm Calm - N/A   Clear
5:56 PM 30.9 °F - 25.0 °F 79% 30.55 in 10.0 mi Calm Calm - N/A   Clear
7:56 PM 28.0 °F - 24.1 °F 85% 30.56 in 10.0 mi Calm Calm - N/A   Clear
8:56 PM 27.0 °F - 24.1 °F 89% 30.55 in 10.0 mi Calm Calm - N/A   Clear
9:56 PM 27.0 °F - 24.1 °F 89% 30.54 in 10.0 mi Calm Calm - N/A   Clear
10:56 PM 26.1 °F - 23.0 °F 88% 30.54 in 10.0 mi Calm Calm - N/A   Clear
11:56 PM 26.1 °F - 24.1 °F 92% 30.54 in 10.0 mi Calm Calm - N/A   Clear